TIME,DELAY(SENSOR),PRES,OXYGEN,RAWTEMP,T(OPTODE),TCPHASE,FLUOR,BETA(BETA700),BETA(BETA412),BETA(BETA440),CDOM,C(CSC),ED(ED412.20),ED(ED444.00),ED(ED489.60),ED(ED554.30),LU(LU412.10),LU(LU443.90),LU(LU489.70),LU(LU554.70),COMP,TILTX,TILTY,CHECK
1352689890,5810,905.2500000000000000,32.5525894165039060,560.8914794921875000,4.4582629203796390,56.6856307983398440,55,99,100,78,83,15548,0,0,0,0,2147121920,2147775113,2147574226,2147567872,2514,3,13,3047
1352693486,5810,981.9600219726562000,36.4231300354003900,566.6204223632812000,4.2805352210998535,56.1241111755371100,54,99,100,79,82,15547,0,0,0,0,2147125513,2147774665,2147576292,2147568530,3237,3,13,45633
1352697086,5811,984.9099731445312000,37.3823699951171900,567.5437011718750000,4.2518649101257320,55.9874916076660160,55,99,100,78,82,15546,0,0,0,0,2147122139,2147771931,2147572644,2147569289,465,3,13,54343
1352700686,5811,992.9000244140625000,36.8567314147949200,567.7216796875000000,4.2463378906250000,56.0666809082031250,55,97,100,77,83,15545,0,0,0,0,2147124964,2147776832,2147575396,2147570633,7,3,13,39315
1352704286,5811,990.6900024414062000,36.7788391113281250,569.4649047851562000,4.1921877861022950,56.1019897460937500,54,98,100,77,81,15545,0,0,0,0,2147121408,2147776923,2147575552,2147567296,3579,3,13,33930
1352707886,5809,991.8200073242188000,37.6958999633789060,570.0833129882812000,4.1729722023010250,55.9653396606445300,56,99,99,77,83,15545,0,0,0,0,2147123702,2147779090,2147575222,2147569481,287,3,13,56445
1352711486,5811,986.4400024414062000,38.4771995544433600,571.2313232421875000,4.1372909545898440,55.8536987304687500,55,97,100,78,83,15545,0,0,0,0,2147121627,2147772269,2147576722,2147569691,3509,3,13,12120
1352715086,5810,982.2999877929688000,39.5188407897949200,571.9019775390625000,4.1164398193359375,55.7074394226074200,55,100,100,76,82,15546,0,0,0,0,2147120576,2147773723,2147575808,2147569197,385,3,13,6221
1352718686,5808,986.7299804687500000,40.1070899963378900,571.9818725585938000,4.1139550209045410,55.6234092712402340,55,98,99,78,83,15531,0,0,0,0,2147124342,2147777627,2147573440,2147567853,460,3,13,11500
1352722286,5812,993.2800292968750000,40.1571006774902340,572.3408203125000000,4.1027951240539550,55.6205101013183600,54,98,100,77,83,15528,0,0,0,0,2147121901,2147775515,2147572690,2147565723,129,3,13,24719
1352725886,5811,992.7299804687500000,39.1422500610351560,571.6370849609375000,4.1246738433837890,55.7653694152832000,54,98,100,77,82,15532,0,0,0,0,2147124635,2147776566,2147575789,2147567789,129,3,13,5093
1352729486,5811,993.9000244140625000,38.9488601684570300,571.1571044921875000,4.1395988464355470,55.7848892211914060,55,99,101,79,82,15530,0,0,0,0,2147124096,2147775177,2147574162,2147567524,3559,3,13,37165
1352733086,5808,998.7999877929688000,38.8999099731445300,571.0255126953125000,4.1436882019042970,55.7938804626464840,56,156,100,77,82,15530,0,0,0,0,2147122413,2147774290,2147577590,2147565961,449,3,13,16497
1352736686,5810,995.9400024414062000,38.4888191223144500,571.0579833984375000,4.1426768302917480,55.8542900085449200,55,101,101,77,82,15526,0,0,0,0,2147120539,2147775771,2147571190,2147568749,3524,3,13,6190
1352740286,5811,998.6400146484375000,38.3331794738769500,571.1422119140625000,4.1400599479675290,55.8813705444335940,56,99,101,77,82,15525,0,0,0,0,2147121965,2147770843,2147575030,2147566774,430,3,13,13085
1352743886,5814,1003.9000244140625000,38.3785705566406250,570.6444091796875000,4.1555328369140625,55.8624114990234400,54,100,100,79,84,15525,0,0,0,0,2147122020,2147777270,2147575296,2147566784,3527,3,13,7269
1352747486,5809,1001.7600097656250000,37.9923591613769500,570.8599243164062000,4.1488380432128910,55.9237899780273440,55,98,100,77,82,15524,0,0,0,0,2147120082,2147777325,2147576941,2147567744,3544,3,13,39537
1352751086,5808,1003.7999877929688000,38.3132400512695300,570.8693237304688000,4.1485419273376465,55.8765296936035160,55,97,101,78,82,15525,0,0,0,0,2147125293,2147774912,2147574217,2147565065,354,3,13,4010
1352754686,5809,1003.5999755859375000,37.7182312011718750,570.6934814453125000,4.1540088653564450,55.9701194763183600,55,99,103,77,82,15524,0,0,0,0,2147125696,2147775350,2147573385,2147569609,116,3,13,6341
1352758286,5809,999.5900268554688000,37.8780899047851560,570.7310791015625000,4.1528401374816895,55.9417610168457000,55,99,99,77,82,15525,0,0,0,0,2147118738,2147772589,2147575634,2147565238,549,3,13,2650
1352761886,5809,996.3400268554688000,38.1900596618652340,571.8864135742188000,4.1169261932373050,55.9076194763183600,55,99,101,76,82,15527,0,0,0,0,2147120384,2147773851,2147572973,2147569170,179,3,13,37248
1352765486,5809,1002.3099975585938000,38.9115104675293000,571.2965698242188000,4.1352620124816895,55.7900581359863300,55,99,100,78,82,15525,0,0,0,0,2147124763,2147778112,2147574491,2147566976,221,3,13,31725
1352769086,5809,993.4299926757812000,38.1909599304199200,571.7318115234375000,4.1217308044433590,55.9097709655761700,54,98,102,78,83,15526,0,0,0,0,2147124260,2147776310,2147577773,2147569609,729,3,13,39267
1352772686,5808,1004.7700195312500000,38.8342704772949200,571.7410888671875000,4.1214408874511720,55.8076286315918000,55,98,100,78,83,15524,0,0,0,0,2147122816,2147776859,2147576612,2147567680,186,3,13,52301
1352776286,5809,996.9899902343750000,38.2512588500976560,571.1746215820312000,4.1390528678894040,55.8931007385253900,55,99,101,78,83,15525,0,0,0,0,2147122706,2147775122,2147577389,2147570505,257,3,13,32601
1352779886,5812,1004.0800170898438000,38.4806098937988300,571.0745239257812000,4.1421661376953125,55.8546714782714840,54,97,100,78,83,15521,0,0,0,0,2147124150,2147777709,2147579355,2147567808,3496,3,13,14775
1352783486,5810,1003.2299804687500000,38.3506088256835940,571.1544189453125000,4.1396808624267580,55.8774414062500000,55,98,99,78,83,15523,0,0,0,0,2147123254,2147775771,2147574784,2147568374,3372,3,13,29300
1352787086,5810,1000.0700073242188000,38.3472900390625000,570.8367919921875000,4.1495552062988280,55.8708190917968750,55,99,101,78,83,15523,0,0,0,0,2147124717,2147772644,2147578349,2147567067,3277,3,13,14270
1352790686,5813,998.0700073242188000,38.7485313415527340,571.8720703125000000,4.1173710823059080,55.8222999572753900,55,99,101,78,82,15523,0,0,0,0,2147124233,2147774162,2147576118,2147570386,64,3,13,10099
1352794286,5809,1000.2500000000000000,39.5864982604980500,572.0114746093750000,4.1130352020263670,55.6993217468261700,54,98,100,79,83,15523,0,0,0,0,2147125750,2147775241,2147577371,2147569627,186,3,13,43038
1352797886,5807,1000.1400146484375000,39.5502090454101560,571.8480224609375000,4.1181201934814450,55.6992301940918000,55,98,101,78,83,15522,0,0,0,0,2147122121,2147777435,2147575570,2147564662,260,3,13,54140
1352801486,5809,996.1099853515625000,40.0120697021484400,572.5579223632812000,4.0960459709167480,55.6370315551757800,54,100,125,77,82,15524,0,0,0,0,2147125522,2147774217,2147577225,2147570121,255,3,13,52807
1352805086,5808,996.4400024414062000,40.0615310668945300,572.5551757812500000,4.0961298942565920,55.6315116882324200,55,96,98,78,83,15520,0,0,0,0,2147122523,2147775606,2147570358,2147571136,101,3,13,7079
1352808686,5808,1000.6799926757812000,40.5389099121093750,573.1033935546875000,4.0790810585021970,55.5688285827636700,54,99,101,78,81,15522,0,0,0,0,2147125586,2147777371,2147576027,2147566893,453,3,13,36729
1352812286,5808,998.6799926757812000,39.6067810058593750,572.2188110351562000,4.1065897941589355,55.6969490051269500,55,98,100,77,82,15522,0,0,0,0,2147123428,2147776694,2147573668,2147569627,850,3,13,8989
1352815886,5807,1004.5700073242188000,39.2496604919433600,572.3037719726562000,4.1039447784423830,55.7565498352050800,56,100,103,78,83,15521,0,0,0,0,2147125988,2147770486,2147575369,2147568292,3323,3,13,17517
1352819486,5809,1003.0599975585938000,38.8258514404296900,572.2482299804688000,4.1056752204895020,55.8193092346191400,55,98,101,78,82,15521,0,0,0,0,2147123200,2147779401,2147573659,2147565924,3546,3,13,63925
1352823086,5809,1013.7999877929688000,37.7652206420898440,571.8463745117188000,4.1181678771972660,55.9720993041992200,55,100,99,78,83,15520,0,0,0,0,2147122733,2147770532,2147572032,2147569380,352,3,13,7024
1352826686,5809,1012.8800048828125000,37.7358818054199200,571.5239257812500000,4.1281929016113280,55.9707603454589840,54,97,101,77,83,15521,0,0,0,0,2147122825,2147774336,2147580096,2147568018,295,3,13,3724
1352830286,5810,1015.9899902343750000,36.8019790649414060,570.4044189453125000,4.1629939079284670,56.1097908020019500,55,99,101,78,83,15517,0,0,0,0,2147123931,2147774125,2147574217,2147566482,187,3,13,50095
1352833886,5809,1013.3900146484375000,37.2489585876464840,570.9716796875000000,4.1453609466552730,56.0382118225097660,54,98,100,78,83,15521,0,0,0,0,2147122505,2147778642,2147573787,2147568877,286,3,13,63351
1352834755,5810,1010.6500244140625000,36.8249282836914060,570.9525146484375000,4.1459598541259770,56.1053009033203100,55,98,100,77,82,15520,0,0,0,0,2147124745,2147774464,2147574966,2147565906,3510,3,13,53614
